EN

Hourly Weather Gogolina

Today, 19 May, Wednesday

Time Temperature Precipitation Wind Pressure Humidity
00:00 +10°C° 0.1 mm 2 mps 748 mmHg 93%
01:00 +9°C° 0.1 mm 3 mps 748 mmHg 94%
02:00 +9°C° 0.1 mm 3 mps 748 mmHg 94%
03:00 +9°C° 0.1 mm 3 mps 748 mmHg 93%
04:00 +8°C° 0.1 mm 3 mps 748 mmHg 92%
05:00 +9°C° 0 mm 3 mps 749 mmHg 89%
06:00 +10°C° 0 mm 3 mps 749 mmHg 87%
07:00 +10°C° 0 mm 4 mps 750 mmHg 84%
08:00 +11°C° 0 mm 4 mps 750 mmHg 77%
09:00 +13°C° 0 mm 4 mps 750 mmHg 71%
10:00 +14°C° 0 mm 4 mps 750 mmHg 64%
11:00 +14°C° 0.1 mm 4 mps 750 mmHg 65%
12:00 +14°C° 0.1 mm 4 mps 750 mmHg 66%
13:00 +14°C° 0.1 mm 4 mps 750 mmHg 67%
14:00 +15°C° 0.1 mm 4 mps 750 mmHg 65%
15:00 +15°C° 0.1 mm 4 mps 750 mmHg 63%
16:00 +15°C° 0.1 mm 4 mps 750 mmHg 61%
17:00 +14°C° 0.1 mm 4 mps 750 mmHg 67%
18:00 +13°C° 0.1 mm 3 mps 750 mmHg 73%
19:00 +11°C° 0.1 mm 3 mps 750 mmHg 80%
20:00 +10°C° 0 mm 3 mps 751 mmHg 82%
21:00 +9°C° 0 mm 2 mps 751 mmHg 85%
22:00 +8°C° 0 mm 2 mps 751 mmHg 87%
23:00 +8°C° 0 mm 2 mps 751 mmHg 88%

Tomorrow, 20 May, Thursday

Time Temperature Precipitation Wind Pressure Humidity
00:00 +7°C° 0 mm 2 mps 751 mmHg 89%
01:00 +7°C° 0 mm 2 mps 752 mmHg 90%
02:00 +6°C° 0 mm 2 mps 752 mmHg 90%
03:00 +6°C° 0 mm 2 mps 752 mmHg 89%
04:00 +6°C° 0 mm 2 mps 752 mmHg 89%
05:00 +7°C° 0 mm 2 mps 753 mmHg 85%
06:00 +8°C° 0 mm 3 mps 753 mmHg 81%
07:00 +10°C° 0 mm 3 mps 753 mmHg 76%
08:00 +11°C° 0 mm 3 mps 753 mmHg 72%
09:00 +13°C° 0 mm 3 mps 753 mmHg 67%
10:00 +14°C° 0 mm 3 mps 753 mmHg 62%
11:00 +16°C° 0.2 mm 3 mps 753 mmHg 61%
12:00 +16°C° 0.2 mm 3 mps 753 mmHg 60%
13:00 +17°C° 0.2 mm 4 mps 753 mmHg 58%
14:00 +15°C° 0.3 mm 4 mps 753 mmHg 63%
15:00 +15°C° 0.3 mm 4 mps 753 mmHg 68%
16:00 +14°C° 0.3 mm 4 mps 753 mmHg 73%
17:00 +13°C° 0.2 mm 3 mps 753 mmHg 75%
18:00 +13°C° 0.2 mm 2 mps 753 mmHg 78%
19:00 +13°C° 0.2 mm 1 mps 754 mmHg 80%
20:00 +10°C° 0 mm 2 mps 754 mmHg 82%
21:00 +9°C° 0 mm 2 mps 754 mmHg 84%
22:00 +8°C° 0 mm 2 mps 754 mmHg 85%
23:00 +8°C° 0 mm 2 mps 754 mmHg 86%

Day after tomorrow, 21 May, Friday

Time Temperature Precipitation Wind Pressure Humidity
00:00 +7°C° 0 mm 2 mps 754 mmHg 86%
01:00 +8°C° 0 mm 1 mps 754 mmHg 87%
02:00 +7°C° 0 mm 2 mps 754 mmHg 87%
03:00 +6°C° 0 mm 2 mps 754 mmHg 88%
04:00 +6°C° 0 mm 2 mps 754 mmHg 89%
05:00 +8°C° 0 mm 3 mps 753 mmHg 87%
06:00 +9°C° 0 mm 3 mps 753 mmHg 84%
07:00 +11°C° 0 mm 4 mps 753 mmHg 81%
08:00 +12°C° 0 mm 4 mps 753 mmHg 75%
09:00 +14°C° 0 mm 5 mps 752 mmHg 68%
10:00 +15°C° 0 mm 6 mps 752 mmHg 62%
11:00 +16°C° 0 mm 6 mps 752 mmHg 60%
12:00 +17°C° 0 mm 6 mps 751 mmHg 59%
13:00 +17°C° 0 mm 6 mps 751 mmHg 57%
14:00 +17°C° 0.1 mm 6 mps 750 mmHg 59%
15:00 +17°C° 0.1 mm 6 mps 749 mmHg 62%
16:00 +16°C° 0.1 mm 5 mps 749 mmHg 65%
17:00 +15°C° 0.2 mm 5 mps 748 mmHg 69%
18:00 +14°C° 0.2 mm 6 mps 748 mmHg 74%
19:00 +13°C° 0.2 mm 6 mps 748 mmHg 79%
20:00 +12°C° 0.2 mm 5 mps 748 mmHg 82%
21:00 +12°C° 0.2 mm 5 mps 748 mmHg 84%
22:00 +10°C° 0.2 mm 5 mps 748 mmHg 87%
23:00 +11°C° 0 mm 4 mps 748 mmHg 88%

22 May, Saturday

Time Temperature Precipitation Wind Pressure Humidity
00:00 +11°C° 0 mm 4 mps 748 mmHg 89%
01:00 +10°C° 0 mm 4 mps 748 mmHg 91%
02:00 +10°C° 0 mm 3 mps 747 mmHg 92%
03:00 +10°C° 0 mm 3 mps 747 mmHg 93%
04:00 +9°C° 0 mm 3 mps 747 mmHg 94%
05:00 +10°C° 0 mm 3 mps 747 mmHg 92%
06:00 +11°C° 0 mm 3 mps 747 mmHg 90%
07:00 +11°C° 0 mm 3 mps 747 mmHg 88%
08:00 +12°C° 0.1 mm 4 mps 747 mmHg 85%
09:00 +13°C° 0.1 mm 4 mps 747 mmHg 83%
10:00 +14°C° 0.1 mm 5 mps 747 mmHg 81%
11:00 +13°C° 0.4 mm 5 mps 747 mmHg 83%
12:00 +13°C° 0.4 mm 5 mps 747 mmHg 85%
13:00 +13°C° 0.4 mm 5 mps 747 mmHg 87%
14:00 +13°C° 0.4 mm 5 mps 746 mmHg 86%
15:00 +13°C° 0.4 mm 4 mps 746 mmHg 85%
16:00 +13°C° 0.4 mm 4 mps 746 mmHg 85%
17:00 +13°C° 0.1 mm 4 mps 746 mmHg 84%
18:00 +12°C° 0.1 mm 4 mps 746 mmHg 84%
19:00 +12°C° 0.1 mm 4 mps 746 mmHg 83%
20:00 +11°C° 0 mm 3 mps 746 mmHg 86%
21:00 +10°C° 0 mm 3 mps 747 mmHg 89%
22:00 +9°C° 0 mm 3 mps 747 mmHg 92%
23:00 +8°C° 0 mm 4 mps 747 mmHg 92%

23 May, Sunday

Time Temperature Precipitation Wind Pressure Humidity
00:00 +7°C° 0 mm 4 mps 747 mmHg 93%
01:00 +7°C° 0 mm 4 mps 747 mmHg 94%
02:00 +6°C° 0 mm 4 mps 747 mmHg 94%
03:00 +6°C° 0 mm 5 mps 748 mmHg 94%
04:00 +6°C° 0 mm 5 mps 748 mmHg 94%
05:00 +7°C° 0 mm 5 mps 748 mmHg 90%
06:00 +8°C° 0 mm 6 mps 749 mmHg 86%
07:00 +9°C° 0 mm 6 mps 749 mmHg 82%
08:00 +10°C° 0 mm 6 mps 749 mmHg 78%
09:00 +10°C° 0 mm 7 mps 750 mmHg 73%
10:00 +11°C° 0 mm 7 mps 750 mmHg 68%
11:00 +11°C° 0 mm 7 mps 750 mmHg 67%
12:00 +11°C° 0 mm 7 mps 751 mmHg 65%
13:00 +11°C° 0 mm 6 mps 751 mmHg 63%
14:00 +11°C° 0 mm 6 mps 751 mmHg 63%
15:00 +12°C° 0 mm 5 mps 751 mmHg 62%
16:00 +12°C° 0 mm 4 mps 751 mmHg 62%
17:00 +12°C° 0 mm 4 mps 752 mmHg 65%
18:00 +11°C° 0 mm 3 mps 752 mmHg 68%
19:00 +11°C° 0 mm 3 mps 752 mmHg 71%
20:00 +9°C° 0 mm 3 mps 752 mmHg 73%
21:00 +8°C° 0 mm 3 mps 753 mmHg 76%
22:00 +7°C° 0 mm 3 mps 753 mmHg 78%
23:00 +7°C° 0 mm 3 mps 753 mmHg 79%

24 May, Monday

Time Temperature Precipitation Wind Pressure Humidity
00:00 +7°C° 0 mm 3 mps 753 mmHg 81%
01:00 +6°C° 0 mm 4 mps 753 mmHg 82%
02:00 +6°C° 0 mm 4 mps 753 mmHg 82%
03:00 +6°C° 0 mm 4 mps 753 mmHg 82%
04:00 +7°C° 0 mm 5 mps 753 mmHg 82%
05:00 +8°C° 0 mm 5 mps 753 mmHg 79%
06:00 +9°C° 0 mm 5 mps 753 mmHg 77%
07:00 +11°C° 0 mm 6 mps 753 mmHg 75%
08:00 +12°C° 0 mm 7 mps 753 mmHg 71%
09:00 +14°C° 0 mm 7 mps 753 mmHg 67%
10:00 +16°C° 0 mm 8 mps 753 mmHg 63%
11:00 +15°C° 0.1 mm 8 mps 752 mmHg 64%
12:00 +15°C° 0.1 mm 8 mps 752 mmHg 66%
13:00 +15°C° 0.1 mm 7 mps 752 mmHg 67%
14:00 +15°C° 0 mm 7 mps 752 mmHg 66%
15:00 +15°C° 0 mm 7 mps 752 mmHg 66%
16:00 +14°C° 0 mm 7 mps 752 mmHg 65%
17:00 +14°C° 0 mm 6 mps 752 mmHg 68%
18:00 +13°C° 0 mm 5 mps 752 mmHg 70%
19:00 +13°C° 0 mm 4 mps 752 mmHg 72%
20:00 +12°C° 0 mm 3 mps 752 mmHg 74%
21:00 +12°C° 0 mm 3 mps 752 mmHg 75%
22:00 +11°C° 0 mm 3 mps 752 mmHg 76%
23:00 +12°C° 0 mm 2 mps 752 mmHg 76%
Show more